HOP487 KOKC-KMEM

Flight info

Callsign HOP487
Flight time N/A
Altitude 25000
Route DCT HET DCT FSM DCT LAURI
Aircraft C25C/L-SDFGRWYL/L

Departure

Time 2026-04-23 01:21
Airport OKC Will Rogers World Airport (KOKC)

Arrival

Time N/A
Airport Memphis International Airport (KMEM)
Time Latitude Longitude Altitude Speed Heading
2026-04-23 01:07 35.39952 -97.61349 1288 ft 0 kts 176°
2026-04-23 01:17 35.39941 -97.61374 1286 ft 8 kts 303°
2026-04-23 01:18 35.39983 -97.61365 1287 ft 6 kts 47°
2026-04-23 01:18 35.40010 -97.61325 1286 ft 7 kts 52°
2026-04-23 01:18 35.40054 -97.61262 1288 ft 10 kts 45°
2026-04-23 01:18 35.40093 -97.61214 1286 ft 0 kts 45°
2026-04-23 01:19 35.40127 -97.61166 1285 ft 22 kts 52°
2026-04-23 01:19 35.40197 -97.61075 1286 ft 0 kts 51°
2026-04-23 01:19 35.40213 -97.61057 1286 ft 10 kts 39°
2026-04-23 01:19 35.40288 -97.60967 1284 ft 18 kts 46°
2026-04-23 01:20 35.40373 -97.60860 1286 ft 17 kts 45°
2026-04-23 01:20 35.40452 -97.60762 1287 ft 17 kts 45°
2026-04-23 01:20 35.40541 -97.60651 1287 ft 8 kts 45°
2026-04-23 01:20 35.40565 -97.60588 1289 ft 0 kts 118°
2026-04-23 01:21 35.40469 -97.60573 1289 ft 34 kts 179°
2026-04-23 01:21 35.39901 -97.60568 1324 ft 123 kts 179°
2026-04-23 01:21 35.38808 -97.60579 1738 ft 192 kts 178°
2026-04-23 01:21 35.37323 -97.60621 2661 ft 211 kts 180°
2026-04-23 01:22 35.35940 -97.60679 4472 ft 197 kts 183°
2026-04-23 01:22 35.34464 -97.60771 5078 ft 231 kts 185°
2026-04-23 01:22 35.32704 -97.60896 5023 ft 268 kts 185°
2026-04-23 01:22 35.30820 -97.61048 5018 ft 272 kts 185°
2026-04-23 01:23 35.28964 -97.61147 5002 ft 258 kts 180°
2026-04-23 01:23 35.27827 -97.59943 4941 ft 291 kts 79°
2026-04-23 01:23 35.27601 -97.57920 5060 ft 229 kts 157°
2026-04-23 01:23 35.26579 -97.56882 6120 ft 176 kts 103°
2026-04-23 01:24 35.26866 -97.55751 4833 ft 167 kts 36°
2026-04-23 01:24 35.28517 -97.55084 4814 ft 280 kts 14°
2026-04-23 01:24 35.30364 -97.54533 5080 ft 271 kts 12°
2026-04-23 01:24 35.32219 -97.54028 5036 ft 273 kts 11°
2026-04-23 01:25 35.34082 -97.53572 5035 ft 274 kts 10°
2026-04-23 01:25 35.35962 -97.53143 5034 ft 274 kts 11°
2026-04-23 01:25 35.37801 -97.52527 5029 ft 275 kts 14°
2026-04-23 01:25 35.39681 -97.52071 5028 ft 275 kts 11°
2026-04-23 01:26 35.41364 -97.51040 5021 ft 272 kts 48°
2026-04-23 01:26 35.42193 -97.49059 5020 ft 259 kts 86°
2026-04-23 01:26 35.41952 -97.46980 5025 ft 240 kts 122°
2026-04-23 01:26 35.41115 -97.45239 5031 ft 237 kts 128°
2026-04-23 01:27 35.40379 -97.43417 5034 ft 242 kts 118°
2026-04-23 01:27 35.39891 -97.41444 5037 ft 247 kts 108°
2026-04-23 01:27 35.39768 -97.39317 5038 ft 254 kts 95°
2026-04-23 01:27 35.39891 -97.37116 5049 ft 258 kts 92°
2026-04-23 01:28 35.39978 -97.34923 5625 ft 255 kts 94°
2026-04-23 01:28 35.39964 -97.32743 6172 ft 259 kts 96°
2026-04-23 01:28 35.39908 -97.30521 6684 ft 263 kts 95°
2026-04-23 01:28 35.39914 -97.28258 7193 ft 266 kts 92°
2026-04-23 01:29 35.39982 -97.25977 7673 ft 270 kts 90°
2026-04-23 01:29 35.40041 -97.23693 8165 ft 272 kts 91°
2026-04-23 01:29 35.40047 -97.21330 8644 ft 275 kts 92°
2026-04-23 01:29 35.40025 -97.18966 9129 ft 278 kts 91°
2026-04-23 01:30 35.40033 -97.16579 9623 ft 281 kts 90°
2026-04-23 01:30 35.40079 -97.14198 10091 ft 283 kts 89°
2026-04-23 01:30 35.40123 -97.11784 10532 ft 285 kts 89°
2026-04-23 01:30 35.40133 -97.09354 10963 ft 287 kts 90°
2026-04-23 01:31 35.40123 -97.06907 11389 ft 288 kts 90°
2026-04-23 01:31 35.40132 -97.04440 11830 ft 288 kts 89°
2026-04-23 01:31 35.40168 -97.01972 12229 ft 291 kts 88°
2026-04-23 01:31 35.40201 -96.99485 12670 ft 296 kts 89°
2026-04-23 01:32 35.40212 -96.96995 14219 ft 288 kts 87°
2026-04-23 01:32 35.40297 -96.94511 15568 ft 296 kts 87°
2026-04-23 01:32 35.40297 -96.91944 16900 ft 304 kts 91°
2026-04-23 01:32 35.40205 -96.89331 18270 ft 309 kts 92°
2026-04-23 01:33 35.40179 -96.86707 19432 ft 315 kts 89°
2026-04-23 01:33 35.40259 -96.83955 20578 ft 322 kts 86°
2026-04-23 01:33 35.40351 -96.81183 21720 ft 328 kts 88°
2026-04-23 01:33 35.40353 -96.78396 22842 ft 334 kts 91°
2026-04-23 01:34 35.40286 -96.75521 23867 ft 340 kts 91°
2026-04-23 01:34 35.40260 -96.72601 24746 ft 347 kts 89°
2026-04-23 01:34 35.40317 -96.69539 25026 ft 375 kts 88°
2026-04-23 01:34 35.40411 -96.66197 25041 ft 407 kts 88°
2026-04-23 01:35 35.40444 -96.62613 25040 ft 433 kts 90°
2026-04-23 01:35 35.40380 -96.58830 25040 ft 454 kts 92°
2026-04-23 01:35 35.40319 -96.56233 25039 ft 465 kts 91°
2026-04-23 01:35 35.40288 -96.52258 25051 ft 458 kts 90°
2026-04-23 01:36 35.40368 -96.48447 25050 ft 438 kts 88°
2026-04-23 01:36 35.40489 -96.44768 25049 ft 427 kts 88°
2026-04-23 01:36 35.40524 -96.41150 25049 ft 421 kts 91°
2026-04-23 01:36 35.40418 -96.37589 25050 ft 417 kts 94°
2026-04-23 01:37 35.40292 -96.34053 25047 ft 413 kts 92°
2026-04-23 01:37 35.40294 -96.30540 25044 ft 411 kts 89°
2026-04-23 01:37 35.40418 -96.27056 25040 ft 408 kts 87°
2026-04-23 01:37 35.40551 -96.23583 25046 ft 406 kts 89°
2026-04-23 01:38 35.40554 -96.20127 25039 ft 405 kts 92°
2026-04-23 01:38 35.40429 -96.16688 25038 ft 403 kts 94°
2026-04-23 01:38 35.40298 -96.13257 25039 ft 402 kts 92°
2026-04-23 01:38 35.40296 -96.09826 25041 ft 402 kts 89°
2026-04-23 01:39 35.40412 -96.06447 25043 ft 401 kts 88°
2026-04-23 01:39 35.40538 -96.02993 25042 ft 400 kts 89°
2026-04-23 01:39 35.40529 -95.99642 25043 ft 399 kts 92°
2026-04-23 01:39 35.40395 -95.96247 25042 ft 398 kts 94°
2026-04-23 01:40 35.40263 -95.92865 25049 ft 397 kts 92°
2026-04-23 01:40 35.40263 -95.89467 25048 ft 397 kts 89°
2026-04-23 01:40 35.40378 -95.86092 25048 ft 397 kts 88°
2026-04-23 01:40 35.40485 -95.82707 25050 ft 396 kts 90°
2026-04-23 01:41 35.40456 -95.79335 25049 ft 396 kts 93°
2026-04-23 01:41 35.40312 -95.75969 25054 ft 395 kts 94°
2026-04-23 01:41 35.40194 -95.72709 25054 ft 395 kts 92°
2026-04-23 01:41 35.40205 -95.69350 25057 ft 395 kts 89°